www.pogodaiklimat.ru

Погода и климат >> Архив погоды >> Парагвай >> Сан-Педро


ПОГОДА в Сан-Педро

  • Прогноз погоды в Сан-Педро
  • Монитор погоды в Сан-Педро

АРХИВ ПОГОДЫ в Сан-Педро

Время (UTC), дата Ветер
(напр.,м/с)
 
Видим.   Явления Облачность Т
(С)
Тd
(С)
f
(%)
Тe
(С)
Тes
(С)
Комфортность P
(гПа)
Po
(гПа)
Тmin
(С)
Tmax
(С)
R
(мм)
R24
(мм)
S
(см)
03 12.04 штиль 0 20 км ясно +24.2 +22.4 90 +32 +32 очень
душно
1012.2 1002.8
12 12.04 штиль 0 20 км 4/0
[Ci fib]
+23.6 +20.9 85 +30 +34 очень
душно
1012.4 1003.0 +22.0
15 12.04 штиль 0 20 км ясно +28.2 +20.5 63 +35 +55 опасность
солнечного
удара
1011.5 1002.3
18 12.04 штиль 0 20 км 8/8 1000 м
[Sc]
+31.0 +18.8 48 +36 +39 очень
душно
1008.9 999.8
21 12.04 штиль 0 20 км 8/0 2000 м
[Ac und]
+25.0 +21.8 82 +32 +32 очень
душно
1008.3 999.0
00 13.04 штиль 0 20 км ясно +23.4 +21.3 88 +31 +31 очень
душно
1009.4 999.6 +31.0
12 13.04 штиль 0 20 км 5/0 2000 м
[Ac und]
+23.0 +21.3 90 +31 +34 очень
душно
1009.6 1000.2 +21.8
15 13.04 штиль 0 20 км 6/0 2000 м
[Ac und]
+27.8 +20.7 65 +35 +46 очень
душно
1009.0 999.8
18 13.04 штиль 0 20 км 8/0 2000 м
[Ac und]
+32.0 +17.9 43 +36 +42 очень
душно
1006.6 997.5
00 14.04 штиль 0 20 км 5/0 2000 м
[Ac und]
+27.0 +21.0 70 +34 +34 очень
душно
1006.9 997.7 +32.2
03 14.04 штиль 0 10 км дымка 8/0 2000 м
[Ac und]
+24.0 +22.3 90 +31 +31 очень
душно
1007.7 998.4
12 14.04 В 4 20 км ясно +23.6 +20.9 85 +30 +32 очень
душно
1008.9 999.6 +22.0
15 14.04 штиль 0 20 км 4/4 1000 м
[Cu hum]
+28.2 +20.3 62 +35 +46 очень
душно
1008.3 999.1
18 14.04 СВ 4 20 км 4/4 1000 м
[Sc]
+33.6 +17.3 38 +37 +41 очень
душно
1008.0 999.0
21 14.04 штиль 0 20 км 9/4 1000 м
[Sc Cs]
+33.4 +18.9 42 +38 +38 очень
душно
1007.1 998.1
00 15.04 штиль 0 20 км ясно +26.6 +21.2 72 +34 +34 очень
душно
1008.7 999.5 +33.6
03 15.04 штиль 0 20 км ясно +24.0 +20.9 83 +30 +30 очень
душно
1009.7 1000.3
09 15.04 штиль 0 10 км дымка ясно +23.0 +21.5 91 +31 +31 очень
душно
1009.8 1000.4
12 15.04 В 3 20 км ясно +25.0 +22.0 83 +32 +35 очень
душно
1011.0 1001.7 +23.0
15 15.04 СВ 3 20 км 9/0
[Cs]
+30.0 +22.7 65 +40 +49 очень
душно
1010.8 1001.6
18 15.04 штиль 0 20 км 8/8 1000 м
[Sc]
+33.4 +20.9 48 +41 +43 опасность
перегрева
1008.7 999.7
21 15.04 штиль 0 20 км 6/6 1000 м
[Sc]
+33.0 +20.9 49 +40 +40 очень
душно
1007.8 998.8
03 16.04 штиль 0 20 км 6/6 600 м
[Sc]
+24.0 +20.9 83 +30 +30 очень
душно
1011.8 1002.4
09 16.04 штиль 0 20 км 6/6 600 м
[Sc]
+22.4 +18.8 80 +28 +28 душно 1010.6 1001.2
12 16.04 ЮВ 3 20 км 9/9 450 м
[Sc]
+23.4 +20.0 81 +30 +31 очень
душно
1012.6 1003.2 +22.0
15 16.04 В 3 20 км 5/5 900 м
[Cu med, cong]
+30.0 +15.7 42 +33 +39 душно 1014.1 1005.0
18 16.04 В 3 20 км 5/5 900 м
[Cu med, cong]
+30.0 +21.0 59 +38 +42 очень
душно
1011.5 1002.4
21 16.04 В 3 20 км 4/4 900 м
[Cu med, cong]
+27.0 +19.3 63 +33 +33 очень
душно
1009.2 1000.1
00 17.04 Ю 3 20 км ясно +23.0 +18.8 77 +29 +29 очень
душно
1010.8 1001.4 +30.6
03 17.04 Ю 3 20 км ясно +21.6 +18.8 84 +26 +26 душно 1011.5 1002.1
06 17.04 Ю 3 20 км ясно +19.4 +16.0 81 +22 +22 комфорт 1011.4 1002.0
09 17.04 Ю 1 20 км ясно +18.0 +16.3 90 +19 +19 1010.6 1001.2
12 17.04 ЮВ 3 20 км ясно +20.4 +16.4 78 +24 +27 комфорт 1012.3 1002.9 +17.0
15 17.04 Ю 4 20 км 3/0
[Ac trans]
+25.0 +16.9 61 +29 +36 душно 1012.6 1003.5
18 17.04 ЮВ 3 20 км ясно +30.4 +17.4 46 +34 +43 очень
душно
1009.7 1000.6
21 17.04 ЮВ 3 20 км ясно +26.4 +17.8 59 +31 +31 душно 1009.5 1000.4
00 18.04 ЮВ 1 20 км ясно +24.2 +20.9 82 +30 +30 очень
душно
1010.0 1000.9 +30.4
03 18.04 штиль 0 20 км ясно +22.0 +19.8 87 +28 +28 душно 1010.1 1000.9
06 18.04 ЮВ 1 20 км ясно +20.0 +16.1 78 +24 +24 комфорт 1004.9 1000.7
09 18.04 штиль 0 20 км 3/0
[Ac trans]
+18.0 +14.5 80 +18 +18 1009.9 1000.7
12 18.04 В 4 20 км 5/0
[Ac trans]
+20.4 +16.7 79 +24 +25 комфорт 1010.6 1001.1 +17.0
15 18.04 В 4 20 км 5/0
[Ac trans]
+26.4 +18.1 60 +31 +37 душно 1011.4 1001.9

 

Местоположение метеостанции Сан-Педро (Парагвай): широта -24.06 долгота -57.08 высота над уровнем моря 80 м.

В архиве по умолчанию представлена погода в Сан-Педро за последнюю неделю. Архивные данные за месяц целиком и за предыдущие месяцы, начиная с января 2011 года, Вы можете получить, выбрав интересующий диапазон дат из раскрывающегося списка и нажав кнопку "Ввод!".


*Определитесь, кто Вы:
робот инопланетянин человек

Внимание! Время в таблицах - всемирное. Для получения местного времени необходимо прибавить поправку, которая равна -4 ч.

Смотрите также архив погоды в соседних городах и на ближайших метеорологических станциях:

Погода в Консепсьоне (Парагвай) (76 км)
Погода в Сан Эстанислао (Парагвай) (93 км)
Погода в Асунсьоне (Парагвай) (139 км)
Погода в Коронель-Овьедо (Парагвай) (171 км)
Погода в Парагуари (Парагвай) (175 км)
Погода в Грал Бругуез (Парагвай) (194 км)
Погода в Вильяррике (Парагвай) (199 км)
Погода в Посо Колорадо (Парагвай) (200 км)
Погода в Сети-Кедасе (Мату-Гросу-ду-Сул, Бразилия) (210 км)
Погода в Пуэрто-Касадо (Парагвай) (213 км)

Пояснения к столбцам:

Ветер - указаны скорость ветра в м/с - средняя за 10 мин, порывы в срок и между сроками (в фигурных скобках) и направление, откуда дует ветер: С - северный, СВ - северо-восточный, В - восточный, ЮВ - юго-восточный, Ю - южный, ЮЗ - юго-западный, З - западный, СЗ - северо-западный.
Видимость - горизонтальная дальность видимости в метрах или километрах. При видимости от 1 до 10 км при отсутствии осадков обычно наблюдается дымка, при ухудшении видимости до 1 км и менее - туман. В сухую погоду видимость может ухудшаться дымом, пылью или мглою.
Явления - указаны атмосферные явления, наблюдавшиеся в срок или в последний час перед сроком; фигурными скобками обозначены явления, наблюдавшиеся между сроками (за 1-3 часа до срока); квадратными скобками обозначены град или гололедные отложения с указанием их диаметра в мм.
Облачность - указаны через наклонную черту общая и нижняя облачность в баллах и высота нижней границы облаков в метрах; квадратными скобками обозначены формы облаков: Ci - перистые, Cs - перисто-слоистые, Cc - перисто-кучевые, Ac - высококучевые, As - высокослоистые, Sc - слоисто-кучевые, Ns - слоисто-дождевые, Cu - кучевые, Cb - кучево-дождевые. Подробнее классификацию облаков см. в Атласе облаков (PDF).
T - Температура воздуха - температура, измеренная на высоте 2 м над землей.
Td - Температура точки росы - температура, при понижении до которой содержащийся в воздухе водяной пар достигнет насыщения.
f - Относительная влажность воздуха - влажноcть воздуха, измеренная на высоте 2 м над землей.
Te - Эффективная температура - температура, которую ощущает одетый по сезону человек в тени. Характеристика душности погоды. При расчете учитывается влияние влажности воздуха и скорости ветра на теплоощущения человека.
Tes - Эффективная температура на солнце - температура, которую ощущает человек, с поправкой на солнечный нагрев. Характеристика знойности погоды. Зависит от высоты солнца над горизонтом, облачности и скорости ветра. Ночью, в пасмурную погоду, а также при ветре 12 м/с и более поправка равна нулю.
P - Атмосферное давление - приведенное к уровню моря атмосферное давление.
Po - Атмосферное давление - измеренное на уровне метеостанции атмосферное давление.
Tmin - Минимальная температура - минимум температуры воздуха на высоте 2 м над землей.
Tmax - Максимальная температура - максимум температуры воздуха на высоте 2 м над землей.
R - Количество осадков - Количество выпавших осадков за период времени, мм. При наведении курсора мыши на число - период времени, за который выпало указанное количество осадков.
R24 - Количество осадков - Количество выпавших осадков за 24 часа, мм.
S - Снежный покров - Высота снежного покрова, см. При наведении курсора мыши на число - состояние снежного покрова и степень покрытия местности в баллах.